Location: Middlebury
(44.0153°N, 73.1678°W)
Time: 07:58:14
(UTC-04:00)

UWE-3 - Pass Details

Date: 22 June 2024
Orbit: 566 x 652 km, 97.8° (Epoch: 12 July)

Event Time Altitude Azimuth Distance (km) Brightness Sun altitude
Rises 03:43:17 0° 9° (N) 2,884 ? -12.3°
Reaches altitude 10° 03:45:31 10° 6° (N) 1,960 ? -12.1°
Maximum altitude 03:49:42 61° 287° (WNW) 673 ? -11.6°
Enters shadow 03:52:58 15° 209° (SSW) 1,576 ? -11.2°
